Location: Seattle
(47.6064°N, 122.3308°W)
Time: 01:56:35
(UTC-08:00)

A-11 Canister half - Pass Details

Date: 27 November 2020
Orbit: 1524 x 1684 km, 47.3° (Epoch: 21 January)

Event Time Altitude Azimuth Distance (km) Brightness Sun altitude
Rises 11:34:36 0° 288° (WNW) 4,894 11.4 20.9°
Reaches altitude 10° 11:37:49 10° 285° (WNW) 3,887 11.0 20.9°
Maximum altitude 11:47:31 63° 208° (SSW) 1,761 10.1 21.0°
Drops below altitude 10° 11:56:51 10° 130° (SE) 3,751 11.7 21.1°
Sets 11:59:55 0° 127° (SE) 4,715 12.1 21.1°
